sat.trackr.live / text

‹ back to catalog

STARLINK-31507

NORAD 59401 · 2024-064D

PAYLOAD ACTIVE UNKNOWN

§ Identity

Operator
Country
US
Launch date
2024-04-05
Launch site
AFETR
Launch vehicle
Mass (kg)
RCS (m²)

Purposes: comms

External: N2YO · Heavens-Above · Gunter

§ Orbital elements

Epoch: 2026-09-21T16:39:16.303680Z

Period
94.27 min
Inclination
43.0017°
Eccentricity
0.0001244
Mean motion
15.27577913 rev/d
Perigee alt
482.2 km
Apogee alt
483.9 km
Semi-major
6,861.2 km
B*
1.3288e-5
RAAN
29.1061°
Arg perigee
267.5097°
Mean anomaly
92.5612°
Rev number
13,914

§ Raw data

STARLINK-315071 59401U 24064D   26264.69393870  .00000104  00000+0  13288-4 0  99902 59401  43.0017  29.1061 0001244 267.5097  92.5612 15.27577913139142

JSON: /api/v1/satellites/59401 · /tle

For live sub-satellite position, see the globe view (requires WebGL).

§ Visibility from observer

Set your observer location to see the next 7 days of passes ≥ 10°. The values pass through the URL so the page stays shareable.

No JS? Fill the form by hand. The geolocation button needs JavaScript.